PROFILE

 METAR AND TAF INFORMATION
ADDS - METARS form results

(0350 UTC 13 July 2020)
http://aviationweather.gov/metar/data/
 
LFMN 130330Z 32009KT CAVOK 24/16 Q1017 NOSIG
LFMN 130300Z 32009KT CAVOK 24/16 Q1017 NOSIG
TAF LFMN 130200Z 1303/1409 35008KT CAVOK BECMG 1307/1309 13010KT TEMPO 1310/1317 SHRA FEW050CB BKN080 PROB40 TEMPO 1311/1316 35010G20KT TSRA SCT040CB BKN060 BECMG 1314/1316 21006KT BECMG 1321/1323 34010KT BECMG 1407/1409 15006KT 

 AIRPORT MAP

 RUNWAY INFORMATION
Runway 04L Runway length 8995 ft Runway width 148 ft
Runway elevation 10 ft Runway displaced threshold 0 ft Runway heading 45
Runway 22R Runway length 8995 ft Runway width 148 ft
Runway elevation 10 ft Runway displaced threshold 575 ft Runway heading 225
Runway 04R Runway length 9712 ft Runway width 148 ft
Runway elevation 10 ft Runway displaced threshold 0 ft Runway heading 45
Runway 22L Runway length 9712 ft Runway width 148 ft
Runway elevation 12 ft Runway displaced threshold 0 ft Runway heading 225

 AIRPORT FREQUENCIES
Type A/D Name NICE APP Frequency 124.175 MHZ
Type ATIS Name NICE ATIS Frequency 129.6 MHZ
Type GND Name NICE GND Frequency 121.775 MHZ
Type TWR Name NICE TWR Frequency 118.7 MHZ

 AIRPORT NEAR NAVIGATION AIDS
Type VOR-DME Name Nice Cote D Azur Frequency 109650 KHZ
Type VOR-DME Name Cagnes Sur Mer Frequency 109200 KHZ
Type NDB Name Nice Frequency 399 KHZ
Type VOR-DME Name Nice Frequency 112400 KHZ